Home   Weather   Campeche   Past weeks
Flag for Mexico

Past Weather in Campeche, Campeche, Mexico — Yesterday and Last 2 Weeks

Now
90 °F

Passing clouds.


Feels Like: 98 °F
Forecast: N/A
Wind: 12 mph from Southeast

Location: Campeche

Current Time: Oct 14, 2019 at 4:14:12 pm

Latest Report: Oct 14, 2019 at 2:40 pm


Visibility: 7 mi

Pressure: 29.86 "Hg

Humidity: 59%

Dew Point: 73 °F

Location of CampecheLocation

Past Weather in Campeche — Graph

°F

Campeche Temperature Yesterday

Maximum temperature yesterday: 91 °F (at 2:41 pm)
Minimum temperature yesterday: 72 °F (at 7:00 am)
Average temperature yesterday: 81 °F

High & Low Weather Summary for the Past Weeks

 TemperatureHumidityPressure
High93 °F (Sep 29, 2:42 pm)100% (Sep 30, 5:40 am)30.10 "Hg (Sep 30, 5:40 am)
Low72 °F (Oct 2, 5:44 am)59% (Sep 29, 2:42 pm)29.72 "Hg (Oct 7, 3:46 pm)
Average82 °F83%29.85 "Hg
* Reported Sep 29 2:42 pm — Oct 14 2:40 pm, Campeche. Weather by CustomWeather, © 2019

Note: Actual official high and low records may vary slightly from our data, if they occured in-between our weather recording intervals... More about our weather records

Advertising

Campeche Weather History for the Previous 24 Hours

Scroll right to see more
 ConditionsComfort  
Time TempWeatherWind HumidityBarometerVisibility
2:40 pm
Mon, Oct 14
90 °FPassing clouds.12 mph59%29.86 "Hg7 mi
1:44 pm90 °FScattered clouds.14 mph63%29.89 "Hg7 mi
12:47 pm88 °FScattered clouds.12 mph66%29.88 "Hg7 mi
11:44 am86 °FScattered clouds.14 mph70%29.94 "Hg7 mi
10:46 am84 °FScattered clouds.14 mph79%29.96 "Hg7 mi
9:47 am82 °FPassing clouds.12 mph84%29.93 "Hg7 mi
8:41 am79 °FScattered clouds.No wind89%29.95 "Hg7 mi
7:40 am73 °FScattered clouds.No wind100%29.94 "Hg7 mi
6:47 am73 °FPassing clouds.No wind94%29.89 "Hg7 mi
5:40 am73 °FClear.No wind94%29.91 "Hg7 mi
10:45 pm
Sun, Oct 13
77 °FMostly cloudy.6 mph94%29.93 "Hg7 mi
9:41 pm77 °FMostly cloudy.6 mph94%29.93 "Hg7 mi
8:44 pm77 °FMostly cloudy.No wind94%29.92 "Hg7 mi
7:46 pm77 °FMostly cloudy.No wind94%29.91 "Hg7 mi
6:47 pm75 °FOvercast.6 mph94%29.85 "Hg6 mi
6:23 pm75 °FRain. Cloudy.6 mph94%29.88 "Hg5 mi
5:42 pm77 °FStrong thunderstorms. Mostly cloudy.12 mph100%29.85 "Hg2 mi
5:31 pm77 °FStrong thunderstorms. Dense fog.12 mph94%29.85 "Hg1 mi
5:21 pm86 °FThunderstorms. Partly sunny.6 mph75%29.84 "Hg4 mi
4:45 pm86 °FScattered clouds.12 mph75%29.83 "Hg7 mi
Weather by CustomWeather, © 2019

See weather overview